Year,Month,Day,Hour,Minute,Value (Times are PST for temperature in C)
2014,08,27,00,00,18.10
2014,08,27,00,01,18.10
2014,08,27,00,02,18.10
2014,08,27,00,03,18.10
2014,08,27,00,04,18.10
2014,08,27,00,05,18.00
2014,08,27,00,06,18.00
2014,08,27,00,07,18.00
2014,08,27,00,08,18.00
2014,08,27,00,09,18.00
2014,08,27,00,10,18.00
2014,08,27,00,11,17.90
2014,08,27,00,12,17.90
2014,08,27,00,13,17.90
2014,08,27,00,14,17.90
2014,08,27,00,15,17.80
2014,08,27,00,16,17.80
2014,08,27,00,17,17.80
2014,08,27,00,18,17.80
2014,08,27,00,19,17.80
2014,08,27,00,20,17.80
2014,08,27,00,21,17.80
2014,08,27,00,22,17.80
2014,08,27,00,23,17.80
2014,08,27,00,24,17.70
2014,08,27,00,25,17.70
2014,08,27,00,26,17.70
2014,08,27,00,27,17.70
2014,08,27,00,28,17.70
2014,08,27,00,29,17.70
2014,08,27,00,30,17.60
2014,08,27,00,31,17.60
2014,08,27,00,32,17.60
2014,08,27,00,33,17.60
2014,08,27,00,34,17.60
2014,08,27,00,35,17.60
2014,08,27,00,36,17.60
2014,08,27,00,37,17.60
2014,08,27,00,38,17.60
2014,08,27,00,39,17.50
2014,08,27,00,40,17.50
2014,08,27,00,41,17.50
2014,08,27,00,42,17.50
2014,08,27,00,43,17.50
2014,08,27,00,44,17.50
2014,08,27,00,45,17.50
2014,08,27,00,46,17.50
2014,08,27,00,47,17.50
2014,08,27,00,48,17.40
2014,08,27,00,49,17.40
2014,08,27,00,50,17.40
2014,08,27,00,51,17.40
2014,08,27,00,52,17.40
2014,08,27,00,53,17.40
2014,08,27,00,54,17.40
2014,08,27,00,55,17.40
2014,08,27,00,56,17.40
2014,08,27,00,57,17.40
2014,08,27,00,58,17.40
2014,08,27,00,59,17.40
2014,08,27,01,00,17.40
2014,08,27,01,01,17.40
2014,08,27,01,02,17.40
2014,08,27,01,03,17.40
2014,08,27,01,04,17.40
2014,08,27,01,05,17.40
2014,08,27,01,06,17.40
2014,08,27,01,07,17.40
2014,08,27,01,08,17.40
2014,08,27,01,09,17.40
2014,08,27,01,10,17.40
2014,08,27,01,11,17.40
2014,08,27,01,12,17.40
2014,08,27,01,13,17.30
2014,08,27,01,14,17.30
2014,08,27,01,15,17.30
2014,08,27,01,16,17.30
2014,08,27,01,17,17.30
2014,08,27,01,18,17.30
2014,08,27,01,19,17.30
2014,08,27,01,20,17.30
2014,08,27,01,21,17.30
2014,08,27,01,22,17.30
2014,08,27,01,23,17.30
2014,08,27,01,24,17.30
2014,08,27,01,25,17.30
2014,08,27,01,26,17.20
2014,08,27,01,27,17.20
2014,08,27,01,28,17.20
2014,08,27,01,29,17.20
2014,08,27,01,30,17.20
2014,08,27,01,31,17.20
2014,08,27,01,32,17.20
2014,08,27,01,33,17.20
2014,08,27,01,34,17.20
2014,08,27,01,35,17.20
2014,08,27,01,36,17.20
2014,08,27,01,37,17.20
2014,08,27,01,38,17.20
2014,08,27,01,39,17.10
2014,08,27,01,40,17.10
2014,08,27,01,41,17.10
2014,08,27,01,42,17.10
2014,08,27,01,43,17.10
2014,08,27,01,44,17.00
2014,08,27,01,45,17.00
2014,08,27,01,46,16.90
2014,08,27,01,47,16.90
2014,08,27,01,48,16.90
2014,08,27,01,49,16.90
2014,08,27,01,50,16.90
2014,08,27,01,51,16.90
2014,08,27,01,52,16.90
2014,08,27,01,53,16.90
2014,08,27,01,54,16.90
2014,08,27,01,55,16.90
2014,08,27,01,56,16.90
2014,08,27,01,57,16.90
2014,08,27,01,58,16.90
2014,08,27,01,59,16.90
2014,08,27,02,00,16.90
2014,08,27,02,01,16.90
2014,08,27,02,02,16.90
2014,08,27,02,03,16.90
2014,08,27,02,04,16.90
2014,08,27,02,05,17.00
2014,08,27,02,06,17.00
2014,08,27,02,07,17.00
2014,08,27,02,08,17.00
2014,08,27,02,09,17.00
2014,08,27,02,10,17.10
2014,08,27,02,11,17.10
2014,08,27,02,12,17.10
2014,08,27,02,13,17.10
2014,08,27,02,14,17.10
2014,08,27,02,15,17.10
2014,08,27,02,16,17.20
2014,08,27,02,17,17.20
2014,08,27,02,18,17.20
2014,08,27,02,19,17.20
2014,08,27,02,20,17.20
2014,08,27,02,21,17.10
2014,08,27,02,22,17.10
2014,08,27,02,23,17.10
2014,08,27,02,24,17.10
2014,08,27,02,25,17.10
2014,08,27,02,26,17.10
2014,08,27,02,27,17.10
2014,08,27,02,28,17.10
2014,08,27,02,29,17.10
2014,08,27,02,30,17.10
2014,08,27,02,31,17.10
2014,08,27,02,32,17.10
2014,08,27,02,33,17.10
2014,08,27,02,34,17.10
2014,08,27,02,35,17.10
2014,08,27,02,36,17.00
2014,08,27,02,37,17.00
2014,08,27,02,38,17.00
2014,08,27,02,39,17.00
2014,08,27,02,40,16.90
2014,08,27,02,41,16.90
2014,08,27,02,42,16.90
2014,08,27,02,43,16.90
2014,08,27,02,44,16.80
2014,08,27,02,45,16.80
2014,08,27,02,46,16.80
2014,08,27,02,47,16.80
2014,08,27,02,48,16.70
2014,08,27,02,49,16.70
2014,08,27,02,50,16.60
2014,08,27,02,51,16.60
2014,08,27,02,52,16.60
2014,08,27,02,53,16.50
2014,08,27,02,54,16.50
2014,08,27,02,55,16.50
2014,08,27,02,56,16.40
2014,08,27,02,57,16.40
2014,08,27,02,58,16.40
2014,08,27,02,59,16.30
2014,08,27,03,00,16.30
2014,08,27,03,01,16.30
2014,08,27,03,02,16.20
2014,08,27,03,03,16.20
2014,08,27,03,04,16.10
2014,08,27,03,05,16.10
2014,08,27,03,06,16.10
2014,08,27,03,07,16.00
2014,08,27,03,08,16.00
2014,08,27,03,09,15.90
2014,08,27,03,10,15.90
2014,08,27,03,11,15.90
2014,08,27,03,12,15.90
2014,08,27,03,13,15.90
2014,08,27,03,14,16.00
2014,08,27,03,15,16.00
2014,08,27,03,16,16.10
2014,08,27,03,17,16.10
2014,08,27,03,18,16.10
2014,08,27,03,19,16.10
2014,08,27,03,20,16.20
2014,08,27,03,21,16.20
2014,08,27,03,22,16.20
2014,08,27,03,23,16.20
2014,08,27,03,24,16.10
2014,08,27,03,25,16.10
2014,08,27,03,26,16.10
2014,08,27,03,27,16.10
2014,08,27,03,28,16.10
2014,08,27,03,29,16.00
2014,08,27,03,30,16.10
2014,08,27,03,31,16.10
2014,08,27,03,32,16.00
2014,08,27,03,33,16.00
2014,08,27,03,34,16.00
2014,08,27,03,35,16.00
2014,08,27,03,36,16.00
2014,08,27,03,37,16.10
2014,08,27,03,38,16.10
2014,08,27,03,39,16.10
2014,08,27,03,40,16.10
2014,08,27,03,41,16.10
2014,08,27,03,42,16.10
2014,08,27,03,43,16.10
2014,08,27,03,44,16.10
2014,08,27,03,45,16.10
2014,08,27,03,46,16.10
2014,08,27,03,47,16.10
2014,08,27,03,48,16.10
2014,08,27,03,49,16.10
2014,08,27,03,50,16.10
2014,08,27,03,51,16.10
2014,08,27,03,52,16.10
2014,08,27,03,53,16.10
2014,08,27,03,54,16.10
2014,08,27,03,55,16.20
2014,08,27,03,56,16.20
2014,08,27,03,57,16.20
2014,08,27,03,58,16.20
2014,08,27,03,59,16.20
2014,08,27,04,00,16.20
2014,08,27,04,01,16.20
2014,08,27,04,02,16.20
2014,08,27,04,03,16.20
2014,08,27,04,04,16.20
2014,08,27,04,05,16.20
2014,08,27,04,06,16.20
2014,08,27,04,07,16.20
2014,08,27,04,08,16.20
2014,08,27,04,09,16.20
2014,08,27,04,10,16.20
2014,08,27,04,11,16.20
2014,08,27,04,12,16.20
2014,08,27,04,13,16.30
2014,08,27,04,14,16.30
2014,08,27,04,15,16.30
2014,08,27,04,16,16.30
2014,08,27,04,17,16.40
2014,08,27,04,18,16.50
2014,08,27,04,19,16.50
2014,08,27,04,20,16.50
2014,08,27,04,21,16.60
2014,08,27,04,22,16.60
2014,08,27,04,23,16.70
2014,08,27,04,24,16.70
2014,08,27,04,25,16.80
2014,08,27,04,26,16.80
2014,08,27,04,27,16.80
2014,08,27,04,28,16.90
2014,08,27,04,29,17.00
2014,08,27,04,30,17.00
2014,08,27,04,31,17.00
2014,08,27,04,32,17.00
2014,08,27,04,33,17.00
2014,08,27,04,34,16.90
2014,08,27,04,35,16.90
2014,08,27,04,36,16.90
2014,08,27,04,37,16.90
2014,08,27,04,38,16.90
2014,08,27,04,39,16.80
2014,08,27,04,40,16.80
2014,08,27,04,41,16.80
2014,08,27,04,42,16.80
2014,08,27,04,43,16.80
2014,08,27,04,44,16.70
2014,08,27,04,45,16.70
2014,08,27,04,46,16.70
2014,08,27,04,47,16.70
2014,08,27,04,48,16.70
2014,08,27,04,49,16.70
2014,08,27,04,50,16.70
2014,08,27,04,51,16.70
2014,08,27,04,52,16.70
2014,08,27,04,53,16.70
2014,08,27,04,54,16.70
2014,08,27,04,55,16.70
2014,08,27,04,56,16.70
2014,08,27,04,57,16.70
2014,08,27,04,58,16.70
2014,08,27,04,59,16.70
2014,08,27,05,00,16.70
2014,08,27,05,01,16.70
2014,08,27,05,02,16.70
2014,08,27,05,03,16.70
2014,08,27,05,04,16.70
2014,08,27,05,05,16.70
2014,08,27,05,06,16.60
2014,08,27,05,07,16.60
2014,08,27,05,08,16.60
2014,08,27,05,09,16.50
2014,08,27,05,10,16.50
2014,08,27,05,11,16.50
2014,08,27,05,12,16.40
2014,08,27,05,13,16.40
2014,08,27,05,14,16.30
2014,08,27,05,15,16.30
2014,08,27,05,16,16.30
2014,08,27,05,17,16.30
2014,08,27,05,18,16.30
2014,08,27,05,19,16.30
2014,08,27,05,20,16.20
2014,08,27,05,21,16.20
2014,08,27,05,22,16.20
2014,08,27,05,23,16.10
2014,08,27,05,24,16.10
2014,08,27,05,25,16.10
2014,08,27,05,26,16.10
2014,08,27,05,27,16.10
2014,08,27,05,28,16.10
2014,08,27,05,29,16.10
2014,08,27,05,30,16.00
2014,08,27,05,31,16.00
2014,08,27,05,32,16.00
2014,08,27,05,33,16.00
2014,08,27,05,34,15.90
2014,08,27,05,35,15.90
2014,08,27,05,36,15.90
2014,08,27,05,37,15.80
2014,08,27,05,38,15.80
2014,08,27,05,39,15.80
2014,08,27,05,40,15.80
2014,08,27,05,41,15.80
2014,08,27,05,42,15.80
2014,08,27,05,43,15.80
2014,08,27,05,44,15.80
2014,08,27,05,45,15.80
2014,08,27,05,46,15.80
2014,08,27,05,47,15.80
2014,08,27,05,48,15.80
2014,08,27,05,49,15.80
2014,08,27,05,50,15.80
2014,08,27,05,51,15.80
2014,08,27,05,52,15.70
2014,08,27,05,53,15.70
2014,08,27,05,54,15.70
2014,08,27,05,55,15.70
2014,08,27,05,56,15.70
2014,08,27,05,57,15.70
2014,08,27,05,58,15.80
2014,08,27,05,59,15.80
2014,08,27,06,00,15.80
2014,08,27,06,01,15.80
2014,08,27,06,02,15.80
2014,08,27,06,03,15.80
2014,08,27,06,04,15.80
2014,08,27,06,05,15.80
2014,08,27,06,06,15.80
2014,08,27,06,07,15.80
2014,08,27,06,08,15.80
2014,08,27,06,09,15.80
2014,08,27,06,10,15.80
2014,08,27,06,11,15.80
2014,08,27,06,12,15.80
2014,08,27,06,13,15.80
2014,08,27,06,14,15.80
2014,08,27,06,15,15.80
2014,08,27,06,16,15.80
2014,08,27,06,17,15.80
2014,08,27,06,18,15.80
2014,08,27,06,19,15.80
2014,08,27,06,20,15.80
2014,08,27,06,21,15.80
2014,08,27,06,22,15.80
2014,08,27,06,23,15.80
2014,08,27,06,24,15.80
2014,08,27,06,25,15.80
2014,08,27,06,26,15.80
2014,08,27,06,27,15.80
2014,08,27,06,28,15.80
2014,08,27,06,29,15.80
2014,08,27,06,30,15.80
2014,08,27,06,31,15.80
2014,08,27,06,32,15.80
2014,08,27,06,33,15.90
2014,08,27,06,34,15.90
2014,08,27,06,35,15.90
2014,08,27,06,36,15.90
2014,08,27,06,37,15.90
2014,08,27,06,38,15.90
2014,08,27,06,39,15.90
2014,08,27,06,40,15.90
2014,08,27,06,41,15.90
2014,08,27,06,42,15.90
2014,08,27,06,43,15.90
2014,08,27,06,44,15.80
2014,08,27,06,45,15.80
2014,08,27,06,46,15.80
2014,08,27,06,47,15.80
2014,08,27,06,48,15.80
2014,08,27,06,49,15.80
2014,08,27,06,50,15.80
2014,08,27,06,51,15.80
2014,08,27,06,52,15.80
2014,08,27,06,53,15.80
2014,08,27,06,54,15.80
2014,08,27,06,55,15.80
2014,08,27,06,56,15.80
2014,08,27,06,57,15.90
2014,08,27,06,58,15.90
2014,08,27,06,59,16.00
2014,08,27,07,00,16.00
2014,08,27,07,01,16.10
2014,08,27,07,02,16.10
2014,08,27,07,03,16.20
2014,08,27,07,04,16.20
2014,08,27,07,05,16.30
2014,08,27,07,06,16.30
2014,08,27,07,07,16.50
2014,08,27,07,08,16.50
2014,08,27,07,09,16.60
2014,08,27,07,10,16.60
2014,08,27,07,11,16.70
2014,08,27,07,12,16.70
2014,08,27,07,13,16.70
2014,08,27,07,14,16.80
2014,08,27,07,15,16.80
2014,08,27,07,16,16.80
2014,08,27,07,17,16.80
2014,08,27,07,18,16.90
2014,08,27,07,19,17.00
2014,08,27,07,20,17.10
2014,08,27,07,21,17.10
2014,08,27,07,22,17.20
2014,08,27,07,23,17.30
2014,08,27,07,24,17.40
2014,08,27,07,25,17.40
2014,08,27,07,26,17.50
2014,08,27,07,27,17.50
2014,08,27,07,28,17.60
2014,08,27,07,29,17.60
2014,08,27,07,30,17.70
2014,08,27,07,31,17.70
2014,08,27,07,32,17.70
2014,08,27,07,33,17.80
2014,08,27,07,34,17.80
2014,08,27,07,35,17.80
2014,08,27,07,36,17.90
2014,08,27,07,37,17.90
2014,08,27,07,38,18.00
2014,08,27,07,39,18.00
2014,08,27,07,40,18.10
2014,08,27,07,41,18.20
2014,08,27,07,42,18.20
2014,08,27,07,43,18.30
2014,08,27,07,44,18.30
2014,08,27,07,45,18.30
2014,08,27,07,46,18.40
2014,08,27,07,47,18.40
2014,08,27,07,48,18.50
2014,08,27,07,49,18.50
2014,08,27,07,50,18.60
2014,08,27,07,51,18.60
2014,08,27,07,52,18.60
2014,08,27,07,53,18.60
2014,08,27,07,54,18.70
2014,08,27,07,55,18.70
2014,08,27,07,56,18.70
2014,08,27,07,57,18.80
2014,08,27,07,58,18.80
2014,08,27,07,59,18.80
2014,08,27,08,00,18.80
2014,08,27,08,01,18.90
2014,08,27,08,02,18.90
2014,08,27,08,03,18.90
2014,08,27,08,04,18.90
2014,08,27,08,05,18.90
2014,08,27,08,06,18.90
2014,08,27,08,07,19.00
2014,08,27,08,08,19.00
2014,08,27,08,09,19.10
2014,08,27,08,10,19.10
2014,08,27,08,11,19.10
2014,08,27,08,12,19.10
2014,08,27,08,13,19.10
2014,08,27,08,14,19.20
2014,08,27,08,15,19.20
2014,08,27,08,16,19.20
2014,08,27,08,17,19.30
2014,08,27,08,18,19.30
2014,08,27,08,19,19.30
2014,08,27,08,20,19.30
2014,08,27,08,21,19.30
2014,08,27,08,22,19.40
2014,08,27,08,23,19.40
2014,08,27,08,24,19.40
2014,08,27,08,25,19.40
2014,08,27,08,26,19.40
2014,08,27,08,27,19.40
2014,08,27,08,28,19.50
2014,08,27,08,29,19.50
2014,08,27,08,30,19.50
2014,08,27,08,31,19.50
2014,08,27,08,32,19.50
2014,08,27,08,33,19.50
2014,08,27,08,34,19.50
2014,08,27,08,35,19.60
2014,08,27,08,36,19.60
2014,08,27,08,37,19.60
2014,08,27,08,38,19.60
2014,08,27,08,39,19.60
2014,08,27,08,40,19.60
2014,08,27,08,41,19.70
2014,08,27,08,42,19.70
2014,08,27,08,43,19.70
2014,08,27,08,44,19.70
2014,08,27,08,45,19.70
2014,08,27,08,46,19.70
2014,08,27,08,47,19.70
2014,08,27,08,48,19.80
2014,08,27,08,49,19.80
2014,08,27,08,50,19.80
2014,08,27,08,51,19.80
2014,08,27,08,52,19.80
2014,08,27,08,53,19.90
2014,08,27,08,54,19.90
2014,08,27,08,55,19.90
2014,08,27,08,56,19.90
2014,08,27,08,57,19.90
2014,08,27,08,58,19.90
2014,08,27,08,59,19.90
2014,08,27,09,00,20.00
2014,08,27,09,01,20.00
2014,08,27,09,02,20.00
2014,08,27,09,03,20.00
2014,08,27,09,04,20.00
2014,08,27,09,05,20.00
2014,08,27,09,06,20.00
2014,08,27,09,07,20.00
2014,08,27,09,08,20.00
2014,08,27,09,09,20.10
2014,08,27,09,10,20.10
2014,08,27,09,11,20.10
2014,08,27,09,12,20.10
2014,08,27,09,13,20.10
2014,08,27,09,14,20.10
2014,08,27,09,15,20.20
2014,08,27,09,16,20.20
2014,08,27,09,17,20.20
2014,08,27,09,18,20.20
2014,08,27,09,19,20.20
2014,08,27,09,20,20.20
2014,08,27,09,21,20.20
2014,08,27,09,22,20.30
2014,08,27,09,23,20.30
2014,08,27,09,24,20.30
2014,08,27,09,25,20.30
2014,08,27,09,26,20.30
2014,08,27,09,27,20.30
2014,08,27,09,28,20.40
2014,08,27,09,29,20.40
2014,08,27,09,30,20.40
2014,08,27,09,31,20.40
2014,08,27,09,32,20.40
2014,08,27,09,33,20.40
2014,08,27,09,34,20.40
2014,08,27,09,35,20.40
2014,08,27,09,36,20.40
2014,08,27,09,37,20.40
2014,08,27,09,38,20.40
2014,08,27,09,39,20.40
2014,08,27,09,40,20.40
2014,08,27,09,41,20.50
2014,08,27,09,42,20.50
2014,08,27,09,43,20.50
2014,08,27,09,44,20.50
2014,08,27,09,45,20.40
2014,08,27,09,46,20.40
2014,08,27,09,47,20.40
2014,08,27,09,48,20.40
2014,08,27,09,49,20.40
2014,08,27,09,50,20.40
2014,08,27,09,51,20.40
2014,08,27,09,52,20.40
2014,08,27,09,53,20.40
2014,08,27,09,54,20.40
2014,08,27,09,55,20.50
2014,08,27,09,56,20.50
2014,08,27,09,57,20.50
2014,08,27,09,58,20.60
2014,08,27,09,59,20.60
2014,08,27,10,00,20.60
2014,08,27,10,01,20.60
2014,08,27,10,02,20.70
2014,08,27,10,03,20.70
2014,08,27,10,04,20.70
2014,08,27,10,05,20.80
2014,08,27,10,06,20.80
2014,08,27,10,07,20.80
2014,08,27,10,08,20.90
2014,08,27,10,09,20.90
2014,08,27,10,10,21.00
2014,08,27,10,11,21.00
2014,08,27,10,12,21.10
2014,08,27,10,13,21.10
2014,08,27,10,14,21.10
2014,08,27,10,15,21.20
2014,08,27,10,16,21.20
2014,08,27,10,17,21.20
2014,08,27,10,18,21.30
2014,08,27,10,19,21.30
2014,08,27,10,20,21.40
2014,08,27,10,21,21.40
2014,08,27,10,22,21.50
2014,08,27,10,23,21.50
2014,08,27,10,24,21.60
2014,08,27,10,25,21.60
2014,08,27,10,26,21.70
2014,08,27,10,27,21.70
2014,08,27,10,28,21.70
2014,08,27,10,29,21.80
2014,08,27,10,30,21.80
2014,08,27,10,31,21.90
2014,08,27,10,32,21.90
2014,08,27,10,33,21.90
2014,08,27,10,34,22.00
2014,08,27,10,35,22.00
2014,08,27,10,36,22.00
2014,08,27,10,37,22.00
2014,08,27,10,38,22.00
2014,08,27,10,39,22.10
2014,08,27,10,40,22.10
2014,08,27,10,41,22.10
2014,08,27,10,42,22.10
2014,08,27,10,43,22.10
2014,08,27,10,44,22.20
2014,08,27,10,45,22.20
2014,08,27,10,46,22.20
2014,08,27,10,47,22.20
2014,08,27,10,48,22.20
2014,08,27,10,49,22.30
2014,08,27,10,50,22.30
2014,08,27,10,51,22.30
2014,08,27,10,52,22.30
2014,08,27,10,53,22.30
2014,08,27,10,54,22.40
2014,08,27,10,55,22.40
2014,08,27,10,56,22.40
2014,08,27,10,57,22.30
2014,08,27,10,58,22.30
2014,08,27,10,59,22.30
2014,08,27,11,00,22.30
2014,08,27,11,01,22.30
2014,08,27,11,02,22.40
2014,08,27,11,03,22.50
2014,08,27,11,04,22.50
2014,08,27,11,05,22.60
2014,08,27,11,06,22.60
2014,08,27,11,07,22.60
2014,08,27,11,08,22.60
2014,08,27,11,09,22.60
2014,08,27,11,10,22.60
2014,08,27,11,11,22.60
2014,08,27,11,12,22.60
2014,08,27,11,13,22.60
2014,08,27,11,14,22.50
2014,08,27,11,15,22.50
2014,08,27,11,16,22.50
2014,08,27,11,17,22.50
2014,08,27,11,18,22.50
2014,08,27,11,19,22.50
2014,08,27,11,20,22.60
2014,08,27,11,21,22.70
2014,08,27,11,22,22.70
2014,08,27,11,23,22.80
2014,08,27,11,24,22.90
2014,08,27,11,25,23.00
2014,08,27,11,26,23.10
2014,08,27,11,27,23.20
2014,08,27,11,28,23.30
2014,08,27,11,29,23.40
2014,08,27,11,30,23.50
2014,08,27,11,31,23.60
2014,08,27,11,32,23.60
2014,08,27,11,33,23.60
2014,08,27,11,34,23.70
2014,08,27,11,35,23.80
2014,08,27,11,36,23.90
2014,08,27,11,37,24.00
2014,08,27,11,38,24.00
2014,08,27,11,39,24.10
2014,08,27,11,40,24.20
2014,08,27,11,41,24.30
2014,08,27,11,42,24.30
2014,08,27,11,43,24.40
2014,08,27,11,44,24.40
2014,08,27,11,45,24.50
2014,08,27,11,46,24.50
2014,08,27,11,47,24.50
2014,08,27,11,48,24.60
2014,08,27,11,49,24.60
2014,08,27,11,50,24.70
2014,08,27,11,51,24.70
2014,08,27,11,52,24.70
2014,08,27,11,53,24.60
2014,08,27,11,54,24.50
2014,08,27,11,55,24.40
2014,08,27,11,56,24.40
2014,08,27,11,57,24.40
2014,08,27,11,58,24.40
2014,08,27,11,59,24.40
2014,08,27,12,00,24.50
2014,08,27,12,01,24.50
2014,08,27,12,02,24.50
2014,08,27,12,03,24.50
2014,08,27,12,04,24.50
2014,08,27,12,05,24.40
2014,08,27,12,06,24.30
2014,08,27,12,07,24.30
2014,08,27,12,08,24.20
2014,08,27,12,09,24.20
2014,08,27,12,10,24.20
2014,08,27,12,11,24.20
2014,08,27,12,12,24.20
2014,08,27,12,13,24.20
2014,08,27,12,14,24.20
2014,08,27,12,15,24.20
2014,08,27,12,16,24.20
2014,08,27,12,17,24.20
2014,08,27,12,18,24.20
2014,08,27,12,19,24.20
2014,08,27,12,20,24.30
2014,08,27,12,21,24.30
2014,08,27,12,22,24.30
2014,08,27,12,23,24.40
2014,08,27,12,24,24.40
2014,08,27,12,25,24.50
2014,08,27,12,26,24.50
2014,08,27,12,27,24.60
2014,08,27,12,28,24.60
2014,08,27,12,29,24.60
2014,08,27,12,30,24.70
2014,08,27,12,31,24.70
2014,08,27,12,32,24.80
2014,08,27,12,33,24.80
2014,08,27,12,34,24.80
2014,08,27,12,35,24.70
2014,08,27,12,36,24.60
2014,08,27,12,37,24.50
2014,08,27,12,38,24.50
2014,08,27,12,39,24.40
2014,08,27,12,40,24.30
2014,08,27,12,41,24.30
2014,08,27,12,42,24.20
2014,08,27,12,43,24.20
2014,08,27,12,44,24.20
2014,08,27,12,45,24.30
2014,08,27,12,46,24.30
2014,08,27,12,47,24.30
2014,08,27,12,48,24.40
2014,08,27,12,49,24.40
2014,08,27,12,50,24.40
2014,08,27,12,51,24.40
2014,08,27,12,52,24.30
2014,08,27,12,53,24.30
2014,08,27,12,54,24.20
2014,08,27,12,55,24.20
2014,08,27,12,56,24.20
2014,08,27,12,57,24.20
2014,08,27,12,58,24.30
2014,08,27,12,59,24.30
2014,08,27,13,00,24.30
2014,08,27,13,01,24.20
2014,08,27,13,02,24.20
2014,08,27,13,03,24.10
2014,08,27,13,04,24.10
2014,08,27,13,05,24.10
2014,08,27,13,06,24.10
2014,08,27,13,07,24.10
2014,08,27,13,08,24.10
2014,08,27,13,09,24.10
2014,08,27,13,10,24.10
2014,08,27,13,11,24.10
2014,08,27,13,12,24.20
2014,08,27,13,13,24.10
2014,08,27,13,14,24.10
2014,08,27,13,15,23.90
2014,08,27,13,16,23.80
2014,08,27,13,17,23.80
2014,08,27,13,18,23.70
2014,08,27,13,19,23.70
2014,08,27,13,20,23.70
2014,08,27,13,21,23.70
2014,08,27,13,22,23.70
2014,08,27,13,23,23.80
2014,08,27,13,24,23.90
2014,08,27,13,25,23.90
2014,08,27,13,26,23.90
2014,08,27,13,27,23.90
2014,08,27,13,28,23.80
2014,08,27,13,29,23.70
2014,08,27,13,30,23.60
2014,08,27,13,31,23.60
2014,08,27,13,32,23.60
2014,08,27,13,33,23.60
2014,08,27,13,34,23.60
2014,08,27,13,35,23.60
2014,08,27,13,36,23.70
2014,08,27,13,37,23.70
2014,08,27,13,38,23.80
2014,08,27,13,39,23.80
2014,08,27,13,40,23.80
2014,08,27,13,41,23.80
2014,08,27,13,42,23.80
2014,08,27,13,43,23.80
2014,08,27,13,44,23.90
2014,08,27,13,45,23.90
2014,08,27,13,46,23.90
2014,08,27,13,47,23.90
2014,08,27,13,48,24.00
2014,08,27,13,49,24.00
2014,08,27,13,50,24.10
2014,08,27,13,51,24.10
2014,08,27,13,52,24.20
2014,08,27,13,53,24.20
2014,08,27,13,54,24.20
2014,08,27,13,55,24.10
2014,08,27,13,56,24.20
2014,08,27,13,57,24.20
2014,08,27,13,58,24.30
2014,08,27,13,59,24.30
2014,08,27,14,00,24.40
2014,08,27,14,01,24.50
2014,08,27,14,02,24.50
2014,08,27,14,03,24.60
2014,08,27,14,04,24.60
2014,08,27,14,05,24.50
2014,08,27,14,06,24.50
2014,08,27,14,07,24.50
2014,08,27,14,08,24.50
2014,08,27,14,09,24.60
2014,08,27,14,10,24.60
2014,08,27,14,11,24.60
2014,08,27,14,12,24.70
2014,08,27,14,13,24.70
2014,08,27,14,14,24.70
2014,08,27,14,15,24.70
2014,08,27,14,16,24.70
2014,08,27,14,17,24.70
2014,08,27,14,18,24.80
2014,08,27,14,19,24.80
2014,08,27,14,20,24.90
2014,08,27,14,21,24.90
2014,08,27,14,22,25.00
2014,08,27,14,23,25.00
2014,08,27,14,24,25.10
2014,08,27,14,25,25.10
2014,08,27,14,26,25.10
2014,08,27,14,27,25.20
2014,08,27,14,28,25.30
2014,08,27,14,29,25.40
2014,08,27,14,30,25.40
2014,08,27,14,31,25.40
2014,08,27,14,32,25.40
2014,08,27,14,33,25.60
2014,08,27,14,34,25.70
2014,08,27,14,35,25.80
2014,08,27,14,36,25.90
2014,08,27,14,37,26.10
2014,08,27,14,38,26.10
2014,08,27,14,39,26.10
2014,08,27,14,40,26.10
2014,08,27,14,41,26.20
2014,08,27,14,42,26.20
2014,08,27,14,43,26.20
2014,08,27,14,44,26.20
2014,08,27,14,45,26.30
2014,08,27,14,46,26.40
2014,08,27,14,47,26.50
2014,08,27,14,48,26.60
2014,08,27,14,49,26.60
2014,08,27,14,50,26.60
2014,08,27,14,51,26.50
2014,08,27,14,52,26.20
2014,08,27,14,53,26.00
2014,08,27,14,54,25.90
2014,08,27,14,55,25.90
2014,08,27,14,56,25.80
2014,08,27,14,57,25.70
2014,08,27,14,58,25.60
2014,08,27,14,59,25.50
2014,08,27,15,00,25.40
2014,08,27,15,01,25.20
2014,08,27,15,02,25.00
2014,08,27,15,03,24.80
2014,08,27,15,04,24.70
2014,08,27,15,05,24.60
2014,08,27,15,06,24.60
2014,08,27,15,07,24.60
2014,08,27,15,08,24.60
2014,08,27,15,09,24.60
2014,08,27,15,10,24.80
2014,08,27,15,11,24.90
2014,08,27,15,12,24.90
2014,08,27,15,13,24.90
2014,08,27,15,14,24.90
2014,08,27,15,15,25.00
2014,08,27,15,16,25.10
2014,08,27,15,17,25.30
2014,08,27,15,18,25.50
2014,08,27,15,19,25.70
2014,08,27,15,20,25.80
2014,08,27,15,21,25.90
2014,08,27,15,22,26.00
2014,08,27,15,23,26.00
2014,08,27,15,24,25.90
2014,08,27,15,25,25.90
2014,08,27,15,26,25.80
2014,08,27,15,27,25.70
2014,08,27,15,28,25.80
2014,08,27,15,29,25.90
2014,08,27,15,30,26.00
2014,08,27,15,31,26.00
2014,08,27,15,32,26.10
2014,08,27,15,33,26.10
2014,08,27,15,34,26.20
2014,08,27,15,35,26.30
2014,08,27,15,36,26.20
2014,08,27,15,37,26.10
2014,08,27,15,38,25.90
2014,08,27,15,39,25.70
2014,08,27,15,40,25.60
2014,08,27,15,41,25.60
2014,08,27,15,42,25.50
2014,08,27,15,43,25.40
2014,08,27,15,44,25.40
2014,08,27,15,45,25.40
2014,08,27,15,46,25.40
2014,08,27,15,47,25.40
2014,08,27,15,48,25.40
2014,08,27,15,49,25.40
2014,08,27,15,50,25.40
2014,08,27,15,51,25.50
2014,08,27,15,52,25.60
2014,08,27,15,53,25.80
2014,08,27,15,54,25.90
2014,08,27,15,55,26.10
2014,08,27,15,56,26.30
2014,08,27,15,57,26.50
2014,08,27,15,58,26.60
2014,08,27,15,59,26.80
2014,08,27,16,00,27.00
2014,08,27,16,01,27.10
2014,08,27,16,02,27.30
2014,08,27,16,03,27.40
2014,08,27,16,04,27.50
2014,08,27,16,05,27.50
2014,08,27,16,06,27.60
2014,08,27,16,07,27.60
2014,08,27,16,08,27.60
2014,08,27,16,09,27.50
2014,08,27,16,10,27.60
2014,08,27,16,11,27.60
2014,08,27,16,12,27.70
2014,08,27,16,13,27.70
2014,08,27,16,14,27.70
2014,08,27,16,15,27.70
2014,08,27,16,16,27.70
2014,08,27,16,17,27.70
2014,08,27,16,18,27.70
2014,08,27,16,19,27.70
2014,08,27,16,20,27.70
2014,08,27,16,21,27.60
2014,08,27,16,22,27.60
2014,08,27,16,23,27.60
2014,08,27,16,24,27.50
2014,08,27,16,25,27.50
2014,08,27,16,26,27.60
2014,08,27,16,27,27.60
2014,08,27,16,28,27.60
2014,08,27,16,29,27.60
2014,08,27,16,30,27.70
2014,08,27,16,31,27.60
2014,08,27,16,32,27.60
2014,08,27,16,33,27.60
2014,08,27,16,34,27.50
2014,08,27,16,35,27.50
2014,08,27,16,36,27.40
2014,08,27,16,37,27.40
2014,08,27,16,38,27.40
2014,08,27,16,39,27.30
2014,08,27,16,40,27.30
2014,08,27,16,41,27.30
2014,08,27,16,42,27.20
2014,08,27,16,43,27.20
2014,08,27,16,44,27.20
2014,08,27,16,45,27.20
2014,08,27,16,46,27.20
2014,08,27,16,47,27.20
2014,08,27,16,48,27.10
2014,08,27,16,49,27.10
2014,08,27,16,50,27.00
2014,08,27,16,51,27.00
2014,08,27,16,52,27.00
2014,08,27,16,53,27.00
2014,08,27,16,54,27.00
2014,08,27,16,55,27.00
2014,08,27,16,56,27.00
2014,08,27,16,57,27.00
2014,08,27,16,58,27.00
2014,08,27,16,59,27.10
2014,08,27,17,00,27.10
2014,08,27,17,01,27.10
2014,08,27,17,02,27.10
2014,08,27,17,03,27.10
2014,08,27,17,04,27.10
2014,08,27,17,05,27.00
2014,08,27,17,06,26.90
2014,08,27,17,07,26.80
2014,08,27,17,08,26.70
2014,08,27,17,09,26.60
2014,08,27,17,10,26.50
2014,08,27,17,11,26.50
2014,08,27,17,12,26.50
2014,08,27,17,13,26.50
2014,08,27,17,14,26.50
2014,08,27,17,15,26.50
2014,08,27,17,16,26.50
2014,08,27,17,17,26.50
2014,08,27,17,18,26.40
2014,08,27,17,19,26.40